Date,TemperatureHighF,TemperatureAvgF,TemperatureLowF,DewpointHighF,DewpointAvgF,DewpointLowF,HumidityHigh,HumidityAvg,HumidityLow,PressureMaxIn,PressureMinIn,WindSpeedMaxMPH,WindSpeedAvgMPH,GustSpeedMaxMPH,PrecipitationSumIn
2012-1-1,54.3,46.4,32.7,34.3,25.4,15.8,80,46,27,30.12,29.71,27,3,27,0.00
2012-1-2,48.4,37.0,29.1,16.3,4.4,-0.6,32,25,21,29.88,29.74,32,7,32,0.04
2012-1-3,31.1,24.8,15.8,4.7,-4.5,-15.3,36,27,22,30.18,29.82,24,6,24,0.00
2012-1-4,28.6,19.9,10.9,7.9,-10.3,-18.8,41,25,23,30.24,29.94,14,4,15,0.00
2012-1-5,38.5,31.2,25.7,12.9,7.7,3.5,56,37,29,29.97,29.88,19,3,19,0.00
2012-1-6,54.9,42.6,26.1,17.6,13.6,10.3,55,33,20,29.94,29.76,10,2,11,0.00
2012-1-7,64.9,48.2,31.3,21.6,16.2,6.4,54,30,18,30.03,29.71,20,3,20,0.00
2012-1-8,46.6,40.1,28.2,14.2,9.1,4.2,41,28,20,30.33,30.03,17,3,17,0.00
2012-1-9,41.7,33.1,25.3,12.4,6.5,1.0,54,34,21,30.33,29.97,8,1,8,0.00
2012-1-10,47.5,37.8,29.1,24.2,15.7,8.7,73,43,27,30.03,29.91,18,4,19,0.00
2012-1-11,48.7,37.8,24.6,38.3,18.0,12.3,81,48,26,30.09,29.74,20,3,20,0.33
2012-1-12,52.5,47.4,44.1,49.4,43.3,38.1,98,86,76,29.74,29.41,24,5,24,1.08
2012-1-13,50.5,35.5,28.0,46.2,13.0,-3.7,98,44,23,29.88,29.26,30,9,58,0.09
2012-1-14,33.1,28.9,26.4,2.1,0.1,-2.6,32,28,25,30.09,29.88,22,6,22,0.00
2012-1-15,26.6,21.8,15.1,4.7,-6.7,-12.1,42,28,24,30.56,30.06,17,5,17,0.00
2012-1-16,36.7,26.4,12.6,19.3,-2.1,-12.1,51,29,22,30.56,30.15,17,3,17,59.72
2012-1-17,54.1,44.1,35.4,42.0,31.5,19.1,84,62,43,30.18,29.59,18,4,18,0.29
2012-1-18,55.0,37.7,23.5,34.8,5.7,-7.9,49,26,21,30.18,29.62,28,8,29,0.04
2012-1-19,35.8,28.2,17.8,6.0,-1.2,-8.3,37,28,22,30.21,29.91,12,3,13,0.04
2012-1-20,34.5,29.6,25.3,8.9,-1.1,-6.4,35,26,23,30.30,29.94,15,4,15,0.00
2012-1-21,29.1,25.9,23.5,22.2,13.0,-5.9,79,60,23,30.27,29.94,14,4,14,0.04
2012-1-22,35.1,24.5,16.7,27.3,7.5,-0.9,73,48,43,30.47,30.27,12,4,13,0.04
2012-1-23,51.4,42.1,35.1,50.7,39.6,0.0,98,91,72,30.36,29.91,15,4,15,0.54
2012-1-24,53.2,45.5,37.0,43.6,26.9,14.6,87,53,26,30.15,29.91,18,4,18,0.00
2012-1-25,45.5,39.7,35.4,18.0,12.8,9.2,48,33,28,30.33,30.15,15,4,15,0.00
2012-1-26,41.9,38.3,34.2,39.5,24.9,15.4,91,60,41,30.21,29.79,11,3,11,0.04
2012-1-27,59.7,50.0,41.9,58.6,36.2,12.3,98,66,27,29.91,29.38,31,6,33,0.50
2012-1-28,48.7,41.6,32.7,17.8,11.3,2.4,52,29,20,30.18,29.91,24,4,24,0.00
2012-1-29,45.3,38.1,29.5,8.7,2.1,-3.7,29,21,20,30.24,30.00,20,5,20,0.00
2012-1-30,39.9,35.5,32.5,12.7,3.1,-1.0,37,25,21,30.33,30.06,20,5,23,0.00
2012-1-31,62.4,48.1,34.3,16.4,10.9,0.1,40,23,16,30.21,30.03,15,3,15,0.00
2012-2-1,64.8,54.7,44.1,26.1,19.3,11.8,46,25,21,30.06,29.88,25,4,25,0.04
2012-2-2,47.1,42.2,36.3,27.5,15.7,7.1,54,34,28,30.30,29.97,19,4,21,0.00
2012-2-3,44.6,35.8,29.3,11.4,6.6,3.8,45,30,20,30.44,30.24,20,3,20,0.00
2012-2-4,42.4,35.2,26.1,19.2,11.8,8.9,66,40,28,30.33,30.06,7,1,7,0.00
2012-2-5,42.3,35.6,25.5,9.8,5.9,-0.3,38,29,21,30.18,30.06,13,3,13,0.00
2012-2-6,52.0,36.9,21.9,14.7,9.3,2.5,56,34,19,30.18,30.00,18,3,18,0.04
2012-2-7,50.2,40.7,32.5,15.5,11.2,7.2,44,30,21,30.21,29.97,17,4,19,0.00
2012-2-8,37.8,33.6,30.0,26.4,14.6,6.4,80,49,29,30.30,30.09,8,2,11,0.00
2012-2-9,41.0,33.5,27.1,26.4,13.1,4.5,79,47,23,30.18,30.06,16,4,16,0.04
2012-2-10,45.5,34.6,23.5,21.9,10.0,4.7,60,38,22,30.18,29.88,11,2,11,0.04
2012-2-11,36.7,33.3,24.3,32.6,23.2,2.9,96,67,39,29.91,29.59,24,3,27,0.21
2012-2-12,30.0,24.5,16.5,2.7,-2.8,-8.2,39,30,25,30.09,29.74,31,9,31,0.29
2012-2-13,42.8,33.1,24.6,5.4,2.0,-1.6,33,27,20,30.09,29.97,25,5,25,0.00
2012-2-14,52.5,41.0,31.1,19.7,10.0,1.4,41,29,18,30.09,29.94,12,2,12,0.00
2012-2-15,46.6,40.9,30.4,25.2,19.8,13.9,59,43,30,30.30,30.00,12,2,12,0.00
2012-2-16,43.0,37.5,28.9,38.5,26.3,16.1,85,65,42,30.30,30.00,7,1,7,0.16
2012-2-17,50.9,43.5,32.0,40.8,21.3,4.5,90,48,19,30.06,29.94,20,4,20,0.00
2012-2-18,51.6,41.4,28.4,23.8,9.5,4.2,45,28,19,30.09,29.85,17,4,17,0.16
2012-2-19,44.4,37.7,28.6,10.9,7.2,2.6,46,28,20,30.09,29.91,12,3,12,0.00
2012-2-20,46.4,36.5,27.5,7.4,3.9,-1.3,32,25,19,30.36,29.94,17,4,17,0.00
2012-2-21,50.2,38.2,22.3,26.4,10.7,0.9,53,33,19,30.33,29.82,19,3,19,0.00
2012-2-22,60.6,48.9,34.5,33.8,19.8,12.2,85,36,17,29.85,29.47,16,3,16,0.00
2012-2-23,59.9,52.7,47.1,23.2,16.1,8.2,37,24,17,29.74,29.38,20,4,20,0.00
2012-2-24,48.4,42.6,38.7,42.5,29.6,9.2,93,65,21,29.68,29.38,57,6,57,0.29
2012-2-25,42.4,38.2,33.6,24.2,7.3,1.0,68,28,21,30.09,29.53,35,10,35,0.25
2012-2-26,46.2,36.1,29.7,9.9,2.7,-2.8,42,24,20,30.41,30.09,22,5,22,0.25
2012-2-27,59.5,45.1,27.9,19.7,14.1,8.7,58,31,17,30.41,30.06,15,3,15,0.25
2012-2-28,52.3,43.1,35.1,13.0,6.8,1.0,34,22,18,30.39,30.15,27,4,27,0.00
2012-2-29,43.9,41.0,36.3,41.9,28.2,5.0,94,65,23,30.36,29.71,10,4,12,0.79
2012-3-1,49.8,43.9,36.0,42.1,32.6,15.7,95,69,31,29.97,29.59,17,4,17,0.13
2012-3-2,46.8,40.3,31.1,39.8,24.7,16.8,85,56,31,30.09,29.74,18,3,18,0.12
2012-3-3,58.1,49.5,44.1,48.6,28.8,5.7,98,57,17,29.74,29.53,18,5,20,0.12
2012-3-4,44.2,39.6,34.0,7.5,4.2,1.0,32,23,20,29.82,29.59,20,5,20,0.00
2012-3-5,44.4,36.0,27.1,7.2,3.3,-3.0,35,25,20,30.39,29.79,19,5,19,0.00
2012-3-6,46.9,34.9,24.4,11.1,0.8,-7.2,35,23,19,30.62,30.36,12,3,13,0.00
2012-3-7,62.8,49.6,35.2,27.7,17.3,8.4,50,29,16,30.56,30.30,14,4,15,0.00
2012-3-8,70.9,60.9,50.9,34.6,29.6,25.8,49,32,22,30.30,29.85,24,7,24,0.00
2012-3-9,63.3,45.7,36.1,39.9,12.1,1.0,59,26,19,30.30,29.85,25,7,25,0.00
2012-3-10,42.6,34.5,28.8,5.4,0.1,-4.3,31,23,21,30.50,30.30,16,4,17,0.00
2012-3-11,61.9,43.6,28.6,16.1,9.1,1.8,34,25,16,30.50,30.33,15,2,15,0.00
2012-3-12,68.2,54.0,34.5,26.9,19.1,12.2,47,27,17,30.39,30.09,12,2,12,0.00
2012-3-13,76.5,63.3,53.8,48.8,36.0,26.2,78,40,20,30.09,29.94,15,3,15,0.17
2012-3-14,71.8,57.9,45.7,43.4,26.9,12.2,75,36,15,30.18,29.94,18,2,18,69.54
2012-3-15,55.2,48.5,44.2,41.0,30.1,17.4,84,52,27,30.30,30.12,17,5,17,0.00
2012-3-16,58.8,49.6,45.1,46.1,39.5,30.7,98,72,35,30.27,30.12,12,2,12,0.00
2012-3-17,69.4,53.8,42.1,45.9,33.9,27.6,91,52,22,30.36,30.18,12,3,12,0.00
2012-3-18,69.1,54.2,46.6,43.2,36.0,26.3,80,55,23,30.39,30.18,8,2,9,0.00
2012-3-19,77.7,61.9,45.7,46.6,34.9,23.1,79,43,15,30.24,30.12,11,2,11,0.00
2012-3-20,73.9,62.3,54.5,58.4,45.3,32.6,98,59,23,30.33,30.18,13,3,13,0.00
2012-3-21,71.1,62.5,57.9,59.3,48.4,34.3,98,66,27,30.33,30.21,8,1,9,0.00
2012-3-22,75.2,63.6,56.5,59.9,46.9,35.8,94,60,25,30.30,30.06,11,1,11,0.00
2012-3-23,78.6,63.0,52.7,58.5,37.2,25.2,95,45,20,30.12,29.97,15,3,15,0.00
2012-3-24,61.0,54.9,48.6,38.1,26.3,13.8,66,35,17,30.06,29.91,20,5,21,0.04
2012-3-25,59.2,49.6,45.0,42.9,36.3,29.2,83,62,32,29.91,29.71,14,3,14,0.00
2012-3-26,53.6,45.0,34.5,45.2,16.6,-0.9,88,37,19,30.18,29.71,28,6,28,0.04
2012-3-27,53.2,39.4,30.7,10.7,2.9,-2.8,27,21,18,30.33,30.15,20,4,20,38.89
2012-3-28,67.8,56.0,35.6,29.4,17.8,2.4,30,22,17,30.15,29.59,14,3,14,0.00
2012-3-29,65.1,52.3,41.5,28.3,15.8,7.3,27,23,20,30.03,29.59,26,6,26,0.00
2012-3-30,59.4,46.1,32.4,21.7,11.8,6.9,42,25,17,30.12,29.91,13,3,13,0.05
2012-3-31,47.3,41.9,40.5,37.8,32.8,16.5,84,70,29,29.97,29.82,15,4,15,0.37
2012-4-1,54.9,45.6,41.0,33.4,27.9,19.9,71,53,27,29.91,29.71,9,2,9,0.00
2012-4-3,67.3,58.9,46.9,17.9,14.6,8.2,27,18,15,29.88,29.76,17,3,17,0.00
2012-4-4,71.6,57.7,47.3,31.5,18.6,7.7,53,23,15,29.79,29.50,20,4,20,0.00
2012-4-5,60.1,48.8,37.6,15.1,8.9,2.3,26,20,17,29.94,29.71,17,3,17,0.00
2012-4-6,58.5,46.5,34.5,13.5,7.5,1.0,27,20,17,30.06,29.88,19,4,19,0.00
2012-4-7,62.8,49.1,32.7,15.9,8.5,-1.0,23,19,16,30.15,29.94,23,4,26,0.00
2012-4-8,69.3,58.8,32.0,22.3,14.1,-1.0,31,17,15,30.03,29.68,26,7,26,0.00
2012-4-9,63.3,55.6,48.2,16.4,12.3,7.9,21,18,16,29.79,29.65,36,7,36,0.00
2012-4-10,60.1,51.9,43.3,19.8,13.3,6.5,38,22,17,29.85,29.68,26,4,26,0.00
2012-4-11,52.3,44.3,36.5,18.7,13.6,9.1,42,29,19,29.94,29.82,12,4,14,0.00
2012-4-12,57.9,48.1,39.7,19.0,15.1,6.7,41,28,17,30.15,29.94,14,4,18,0.00
2012-4-13,64.9,50.2,32.2,17.7,13.1,6.4,49,24,15,30.24,29.85,14,2,14,0.00
2012-4-14,72.9,58.1,36.7,24.4,18.7,8.1,42,23,15,30.21,30.00,12,2,12,0.00
2012-4-15,81.1,67.7,57.7,46.2,30.7,18.5,64,27,17,30.06,29.94,17,2,17,0.00
2012-4-16,90.0,73.5,54.9,44.7,34.4,27.0,65,28,12,30.03,29.88,13,2,13,0.00
2012-4-17,78.1,69.7,56.3,37.4,25.6,12.1,33,19,15,30.15,29.91,17,3,17,0.00
2012-4-18,59.9,53.7,49.6,33.6,16.6,9.1,53,24,17,30.27,30.12,13,2,13,0.00
2012-4-19,73.8,58.7,47.1,42.6,31.1,18.5,74,41,16,30.12,29.97,8,1,8,0.00
2012-4-20,75.0,61.0,46.4,48.8,36.2,27.6,84,44,18,30.03,29.82,12,2,12,0.00
2012-4-21,80.8,66.4,53.8,52.3,40.2,28.4,84,46,17,29.97,29.62,23,3,23,0.17
2012-4-22,54.1,49.3,46.2,42.9,37.3,27.8,80,64,43,29.79,29.29,22,4,22,2.03
2012-4-23,51.1,44.8,40.3,40.7,30.3,18.8,87,59,33,29.47,29.20,15,4,19,0.17
2012-4-24,61.9,49.0,37.8,23.4,15.5,7.7,53,29,16,29.74,29.44,20,4,22,0.00
2012-4-25,64.8,50.7,33.6,28.5,17.0,9.7,62,30,15,29.91,29.71,17,2,17,0.00
2012-4-26,64.4,53.4,39.6,50.4,29.8,16.0,74,41,28,29.91,29.59,10,2,10,0.00
2012-4-27,58.8,49.9,36.9,52.3,16.5,6.7,79,27,19,30.15,29.59,22,6,23,0.00
2012-4-28,58.1,45.8,31.5,22.5,13.4,8.2,56,29,17,30.30,30.12,12,2,13,0.00
2012-4-29,65.7,52.4,34.5,22.8,15.2,9.7,52,25,15,30.24,30.06,18,3,18,0.00
2012-4-30,65.8,51.7,32.5,21.1,12.8,2.1,44,22,15,30.33,30.15,10,2,12,0.00
2012-5-1,77.0,61.5,52.3,54.0,38.3,21.1,83,47,21,30.15,29.94,14,2,14,0.41
2012-5-2,62.6,53.6,50.7,44.8,41.6,38.0,77,64,46,30.18,30.03,11,3,11,0.04
2012-5-3,64.0,57.0,50.5,50.6,44.6,38.1,88,66,39,30.18,30.06,6,1,8,0.13
2012-5-4,83.8,70.8,57.0,57.7,46.2,37.2,94,49,20,30.12,29.82,14,2,14,0.25
2012-5-5,67.8,61.9,58.5,59.2,52.8,38.5,91,73,35,30.03,29.85,10,3,11,0.00
2012-5-6,68.5,59.6,52.2,45.8,35.0,21.4,66,42,23,30.12,30.00,10,3,10,0.00
2012-5-7,68.7,60.4,48.2,41.2,30.5,23.4,68,35,23,30.15,30.06,10,2,10,0.00
2012-5-8,72.3,63.5,56.5,39.4,33.0,25.8,40,32,22,30.06,29.79,20,4,20,0.00
2012-5-9,75.9,66.6,57.0,59.5,44.8,30.7,82,50,21,29.94,29.59,11,2,11,0.41
2012-5-10,66.0,58.0,48.0,47.9,28.8,14.1,80,38,18,29.88,29.53,24,4,24,0.17
2012-5-11,71.2,56.9,41.2,30.0,21.7,12.7,62,28,15,30.12,29.74,20,3,20,0.00
2012-5-12,80.4,63.4,42.3,31.9,25.0,17.9,59,27,15,30.27,30.12,14,2,14,0.00
2012-5-13,83.8,69.7,53.1,34.7,29.0,17.7,42,23,14,30.21,30.06,12,2,12,0.00
2012-5-14,69.6,65.8,62.6,54.0,40.9,29.0,73,42,24,30.18,30.06,12,2,12,0.16
2012-5-15,76.8,66.8,61.7,60.2,53.1,42.6,84,64,31,30.09,29.88,11,2,11,0.79
2012-5-16,83.7,71.6,62.1,62.3,43.6,26.4,85,45,14,29.97,29.82,10,2,10,0.54
2012-5-17,73.2,63.2,54.1,37.2,24.6,15.5,39,24,16,30.12,29.88,13,3,13,0.00
2012-5-18,73.9,61.2,46.9,35.1,25.0,14.7,62,28,16,30.21,30.12,57,3,57,0.00
2012-5-19,80.2,63.2,44.6,33.4,25.1,17.6,55,27,15,30.18,30.06,15,2,15,0.00
2012-5-20,78.6,65.9,49.5,53.2,30.1,15.5,65,30,15,30.21,30.12,20,4,20,0.00
2012-5-21,65.8,62.5,60.3,58.3,54.4,47.2,89,75,54,30.18,29.94,14,4,14,0.21
2012-5-22,75.7,66.6,61.3,58.7,50.4,40.8,89,60,31,29.97,29.79,9,2,9,3.36
2012-5-23,85.5,72.9,64.8,58.4,45.4,35.7,77,42,18,30.00,29.82,12,2,13,3.36
2012-5-24,84.0,69.5,65.7,61.1,51.6,34.9,79,56,19,30.18,30.00,16,3,16,0.41
2012-5-25,84.4,72.2,64.6,65.0,51.6,36.0,93,55,20,30.18,30.06,9,2,9,0.00
2012-5-26,88.3,74.9,64.4,63.7,50.2,40.5,84,46,20,30.15,30.06,10,1,10,0.00
2012-5-27,89.4,77.1,68.5,65.6,50.1,38.1,83,45,19,30.18,30.00,7,2,10,0.79
2012-5-28,93.9,79.6,65.7,54.6,43.8,38.6,65,31,16,30.03,29.88,11,2,11,0.04
2012-5-29,93.7,83.0,68.9,57.6,46.2,34.3,64,31,14,29.91,29.71,21,3,21,0.25
2012-5-30,80.6,73.3,64.8,49.2,40.6,35.8,56,32,20,29.76,29.71,6,1,6,0.00
2012-5-31,81.1,69.6,59.7,56.7,37.3,22.8,81,37,14,29.91,29.71,11,2,18,0.00
2012-6-1,73.8,66.5,58.1,65.4,34.6,27.6,87,32,22,29.97,29.68,18,4,18,0.59
2012-6-2,71.8,65.0,54.1,63.4,36.3,22.5,80,39,19,29.79,29.65,20,3,20,0.08
2012-6-3,75.7,62.3,50.0,49.7,35.1,24.1,74,40,18,29.82,29.65,22,2,22,0.25
2012-6-4,66.7,59.3,54.7,49.5,39.4,29.4,74,50,26,29.79,29.59,13,2,13,0.12
2012-6-5,66.2,58.0,48.9,40.0,31.5,24.8,64,39,22,29.94,29.74,13,2,13,0.00
2012-6-6,76.6,62.9,46.4,47.2,32.3,23.8,77,37,16,30.00,29.74,10,1,10,0.04
2012-6-7,80.1,66.7,53.4,48.3,33.2,25.3,73,31,15,29.97,29.88,13,2,13,0.00
2012-6-8,83.5,69.4,54.7,45.6,33.0,23.1,70,30,14,29.97,29.82,14,2,15,0.00
2012-6-9,86.0,72.4,57.0,40.4,32.5,27.0,51,25,13,30.00,29.88,13,2,13,0.00
2012-6-10,94.3,78.4,64.2,47.1,37.8,30.3,53,26,11,30.15,29.94,11,2,11,0.00
2012-6-11,82.6,72.6,66.7,51.9,43.7,38.1,57,37,22,30.21,30.09,15,4,15,0.00
2012-6-12,71.1,68.0,66.7,61.6,53.9,41.3,81,62,37,30.15,29.82,17,3,17,0.66
2012-6-13,78.6,70.5,65.7,62.5,42.4,28.5,84,42,18,30.06,29.85,11,4,17,0.00
2012-6-14,76.8,68.9,62.6,52.8,40.1,32.4,68,38,22,30.24,30.06,15,3,15,0.00
2012-6-15,80.1,68.1,55.4,52.0,35.4,22.8,74,34,17,30.27,30.18,14,2,14,0.00
2012-6-16,80.8,68.3,53.6,43.5,30.0,21.5,62,27,14,30.36,29.94,11,2,12,0.00
2012-6-17,74.8,66.0,59.5,39.8,34.6,29.8,45,32,21,30.24,30.06,10,2,10,0.00
2012-6-18,74.3,64.3,53.4,46.3,35.8,30.7,70,37,22,30.15,30.06,12,2,12,0.00
2012-6-19,83.8,72.5,63.9,50.2,41.0,36.7,44,33,21,30.18,30.06,9,2,9,0.00
2012-6-20,96.8,82.6,67.8,55.6,44.8,36.4,63,30,14,30.12,29.94,11,2,11,0.00
2012-6-21,96.4,85.0,72.3,54.9,43.4,35.6,54,26,14,29.97,29.76,13,2,13,0.00
2012-6-22,95.5,80.5,70.3,62.6,48.0,37.5,76,36,14,29.85,29.71,14,2,14,0.26
2012-6-23,86.5,75.7,65.3,63.2,41.2,23.4,80,38,13,29.97,29.82,19,2,19,0.00
2012-6-24,88.7,75.3,59.0,47.1,35.4,28.1,59,27,13,30.03,29.88,10,1,10,0.04
2012-6-25,82.6,72.7,63.7,51.4,37.3,20.6,51,29,17,29.88,29.65,16,3,16,0.00
2012-6-26,76.5,66.2,55.6,29.7,25.3,19.6,34,22,15,29.79,29.71,18,4,18,0.00
2012-6-27,82.9,69.6,51.8,35.8,28.5,22.3,51,24,14,29.85,29.76,19,3,19,0.00
2012-6-28,92.1,77.7,58.6,39.0,32.4,27.3,44,21,12,29.88,29.71,15,2,15,0.00
2012-6-29,97.2,82.9,69.1,59.9,43.6,32.6,71,28,16,29.76,29.65,17,2,17,0.12
2012-6-30,94.3,81.9,70.7,55.9,41.8,30.3,57,28,11,29.82,29.65,12,2,12,0.00
2012-7-1,96.4,82.1,67.3,55.8,41.9,30.4,62,28,14,29.88,29.74,15,2,15,0.00
2012-7-2,88.7,78.4,66.0,43.6,33.3,24.4,42,21,13,29.94,29.79,15,2,15,0.00
2012-7-3,94.3,80.0,62.1,44.4,33.9,27.9,49,21,11,29.97,29.82,10,1,10,0.00
2012-7-4,94.3,83.1,70.9,55.6,40.8,33.2,57,24,14,29.88,29.71,15,2,15,0.00
2012-7-5,94.8,84.2,74.1,63.2,43.8,29.1,68,29,11,29.85,29.71,16,3,16,0.12
2012-7-6,96.1,82.4,63.7,43.2,34.4,26.3,44,20,11,29.94,29.79,9,2,9,0.00
2012-7-7,101.3,86.4,76.5,50.9,42.6,34.5,38,23,12,29.88,29.76,24,2,24,0.00
2012-7-8,91.0,80.8,73.4,53.2,44.0,36.2,48,29,17,29.85,29.76,10,2,10,0.00
2012-7-9,90.3,79.0,72.7,36.9,33.6,28.5,24,19,13,29.97,29.82,10,2,10,0.00
2012-7-10,86.7,76.7,70.2,42.0,35.6,30.9,35,23,16,30.06,29.94,12,2,12,0.00
2012-7-11,89.2,76.8,64.9,56.2,39.6,29.6,68,30,13,30.15,30.06,13,2,13,0.00
2012-7-12,92.8,78.8,65.1,47.5,35.9,28.5,52,23,12,30.18,30.03,13,2,13,0.00
2012-7-13,90.3,78.8,66.9,45.6,37.9,31.5,45,25,15,30.21,30.12,8,1,8,0.00
2012-7-14,79.2,73.9,67.5,58.6,44.7,33.7,72,38,22,30.21,30.12,9,1,9,0.17
2012-7-15,92.8,80.4,71.4,63.5,50.9,41.5,69,39,19,30.15,29.91,20,2,20,0.92
2012-7-16,90.3,81.2,69.3,65.3,46.6,36.2,81,35,18,29.97,29.76,13,2,13,0.00
2012-7-17,96.8,84.0,67.6,60.1,43.0,35.6,69,28,13,29.85,29.76,15,2,15,0.00
2012-7-18,101.5,85.3,76.6,52.7,43.8,36.8,43,25,12,29.85,29.74,20,2,20,0.88
2012-7-19,79.0,74.8,71.6,60.8,48.9,40.8,63,41,30,30.00,29.82,12,3,12,2.33
2012-7-20,72.0,66.3,62.6,61.4,53.2,45.3,76,63,46,30.03,29.85,21,6,21,3.45
2012-7-21,81.3,70.2,63.0,49.7,38.9,30.4,61,35,17,30.12,30.00,11,3,11,0.00
2012-7-22,86.9,75.0,34.2,46.4,39.9,0.0,45,29,18,30.18,30.06,10,1,10,0.00
2012-7-23,92.5,79.1,68.0,58.3,47.9,39.2,64,37,17,30.12,29.85,12,2,12,0.00
2012-7-24,94.8,83.4,72.7,55.1,42.8,29.9,49,27,11,29.85,29.59,15,4,15,0.00
2012-7-25,87.3,75.9,63.1,32.0,28.9,25.1,26,18,13,29.94,29.76,13,3,15,0.00
2012-7-26,94.5,78.1,66.4,63.3,42.8,29.5,76,30,17,29.85,29.68,28,2,28,0.33
2012-7-27,91.6,79.5,70.7,65.6,51.3,39.1,80,44,18,29.88,29.65,15,2,15,0.00
2012-7-28,91.6,77.4,68.4,60.3,50.1,39.1,68,41,18,29.97,29.85,13,2,14,0.04
2012-7-29,83.5,73.5,67.3,59.7,48.7,37.2,72,45,21,30.06,29.91,10,2,10,0.37
2012-7-30,87.1,75.3,68.0,61.8,47.2,36.3,78,41,18,30.12,30.03,13,2,13,0.00
2012-7-31,86.2,75.2,67.8,56.4,45.1,35.9,66,37,18,30.09,29.88,10,2,10,0.00
2012-8-1,84.2,74.6,67.3,56.2,49.2,40.9,66,42,23,29.97,29.82,10,1,10,0.00
2012-8-2,93.9,78.8,64.4,62.2,46.3,34.5,78,39,14,29.94,29.82,11,2,11,0.00
2012-8-3,97.3,81.9,70.9,66.0,49.0,36.8,74,37,13,30.09,29.94,12,1,12,0.00
2012-8-4,90.0,79.9,71.8,64.4,52.1,39.0,71,40,20,30.21,30.06,18,2,18,0.91
2012-8-5,95.9,81.4,71.6,64.4,52.8,36.2,74,43,14,30.18,29.94,19,3,19,0.30
2012-8-6,88.5,78.5,70.3,68.0,47.8,30.8,79,41,15,30.06,29.97,10,2,10,0.08
2012-8-7,87.3,75.2,62.1,52.6,38.7,32.2,62,29,16,30.15,29.94,8,1,8,0.00
2012-8-8,91.0,78.4,67.5,66.2,45.0,33.8,77,36,15,30.00,29.94,5,1,6,0.00
2012-8-9,94.8,79.5,68.4,66.7,46.6,34.6,76,36,14,29.97,29.85,19,2,19,0.00
2012-8-10,84.9,77.0,69.3,62.2,54.0,42.0,75,47,23,29.88,29.74,11,2,11,0.58
2012-8-11,88.9,78.2,70.9,63.6,51.2,38.7,75,43,18,29.94,29.76,13,2,13,0.79
2012-8-12,87.4,74.8,65.7,63.8,44.0,31.2,77,39,16,29.97,29.88,12,2,12,0.00
2012-8-13,87.6,73.6,61.0,54.8,40.1,30.4,71,34,16,30.03,29.94,13,2,13,0.00
2012-8-14,78.3,71.1,67.1,61.9,54.2,42.7,77,56,31,30.00,29.85,11,1,11,0.91
2012-8-15,87.1,75.7,68.7,64.9,51.8,36.6,80,49,18,29.91,29.82,8,1,8,0.13
2012-8-16,85.1,73.5,63.9,57.8,41.1,26.1,75,37,13,29.97,29.85,17,2,17,0.00
2012-8-17,90.7,76.0,62.4,58.8,41.9,31.9,69,34,15,29.91,29.79,12,2,12,0.25
2012-8-18,81.3,69.9,61.9,59.5,43.2,29.6,74,43,17,29.94,29.85,13,2,13,0.04
2012-8-19,73.8,65.9,55.9,52.4,38.2,31.5,74,40,22,30.00,29.91,6,1,6,0.00
2012-8-20,80.8,70.8,61.3,51.3,37.9,29.6,67,34,17,29.94,29.82,10,1,10,0.00
2012-8-21,85.8,71.9,61.2,53.7,39.1,29.7,73,35,16,30.09,29.94,7,2,7,0.00
2012-8-22,88.9,74.1,60.3,56.0,39.2,27.2,72,34,13,30.15,30.06,8,1,10,0.00
2012-8-23,89.6,75.7,63.1,56.3,40.8,28.1,69,34,13,30.18,30.09,8,1,8,0.00
2012-8-24,88.9,76.0,63.3,56.3,39.0,28.1,69,31,13,30.18,30.12,9,1,9,0.04
2012-8-25,81.0,73.6,66.9,51.9,42.3,34.8,57,34,20,30.27,30.18,11,3,11,0.00
2012-8-26,84.2,74.5,67.5,49.4,41.9,34.1,52,33,19,30.30,30.18,13,4,13,0.00
2012-8-27,88.3,76.0,69.4,66.5,53.0,41.6,76,48,22,30.21,29.94,13,2,13,0.87
2012-8-28,87.1,77.2,66.7,65.4,47.6,28.8,76,41,14,30.00,29.82,15,3,15,0.17
2012-8-29,81.9,70.7,61.0,47.9,35.8,26.6,55,30,17,30.27,29.91,10,2,10,0.17
2012-8-30,85.3,70.1,55.8,50.4,35.6,25.0,70,33,13,30.15,30.00,15,1,15,0.17
2012-8-31,90.9,75.4,60.4,54.8,38.7,27.2,68,32,12,30.09,29.94,10,2,12,0.00
2012-9-1,90.7,77.1,67.6,48.3,40.3,34.5,44,29,15,30.06,29.94,14,2,14,0.00
2012-9-2,78.4,73.8,71.1,63.1,54.1,44.8,74,52,32,30.09,30.00,8,2,8,0.12
2012-9-3,73.6,71.2,69.6,64.9,61.4,53.8,78,71,56,30.12,30.03,13,3,13,0.87
2012-9-4,81.1,74.2,70.5,67.8,62.5,52.0,80,68,40,30.06,29.82,10,2,10,1.00
2012-9-5,84.2,77.1,66.4,63.4,50.3,37.5,66,41,23,29.88,29.76,13,3,13,1.00
2012-9-6,83.7,71.6,63.7,60.5,49.2,0.0,77,50,20,29.91,29.82,6,0,6,0.00
2012-9-7,91.4,77.5,66.9,63.1,48.2,37.5,79,42,18,29.94,29.82,10,1,10,0.00
2012-9-8,88.2,74.4,64.2,59.3,50.6,33.7,72,47,18,29.94,29.62,17,3,18,0.33
2012-9-9,80.2,68.2,58.5,54.5,37.1,23.1,72,38,15,29.91,29.65,10,2,10,0.00
2012-9-10,73.4,63.4,53.2,40.7,27.4,16.2,56,28,16,30.15,29.85,14,3,14,0.00
2012-9-11,76.5,60.8,46.0,36.7,27.0,17.2,59,31,15,30.30,30.15,12,1,12,0.00
2012-9-12,82.4,65.3,49.1,44.5,32.2,22.6,67,34,14,30.36,30.27,9,1,9,0.00
2012-9-13,83.3,67.2,52.7,45.8,34.1,23.9,62,33,14,30.39,30.24,7,1,8,0.00
2012-9-14,82.9,68.3,53.8,49.9,36.1,25.1,67,35,14,30.27,30.06,10,1,10,0.00
2012-9-15,73.6,64.6,54.0,52.8,30.6,19.7,66,30,16,30.18,30.06,15,3,15,0.00
2012-9-16,74.7,61.0,50.2,44.4,29.6,20.1,67,35,16,30.15,30.03,11,2,11,0.00
2012-9-17,79.7,64.5,47.5,42.0,30.8,23.5,66,33,15,30.15,30.00,13,2,13,0.00
2012-9-18,77.7,70.7,66.9,60.5,52.0,39.9,77,55,31,30.03,29.59,30,4,30,0.83
2012-9-19,69.4,62.5,50.7,59.6,31.4,18.3,76,35,17,30.18,29.76,18,3,18,0.04
2012-9-21,76.3,64.6,52.9,53.8,38.4,28.8,74,43,18,30.12,30.00,9,2,9,0.00
2012-9-22,84.2,69.6,58.5,56.1,42.4,30.4,69,42,16,30.03,29.76,15,2,15,0.04
2012-9-23,67.8,59.2,47.3,56.3,25.9,15.3,70,30,17,30.15,29.79,14,3,14,0.04
2012-9-24,66.6,54.4,45.3,38.0,25.0,14.6,69,36,17,30.21,30.09,15,2,15,0.00
2012-9-25,74.8,58.7,43.7,44.1,27.9,21.7,73,35,16,30.24,30.12,16,2,16,0.00
2012-9-26,78.3,69.6,63.3,45.5,36.4,33.8,46,30,21,30.12,30.00,10,2,12,0.00
2012-9-27,67.8,66.5,65.7,52.2,45.1,40.1,61,46,37,30.15,30.12,6,1,6,0.04
2012-9-28,78.4,69.6,63.7,61.2,46.2,29.8,79,49,21,30.12,29.94,11,2,11,0.21
2012-9-29,64.9,59.7,54.9,39.2,31.6,26.4,54,35,25,29.97,29.88,11,2,11,0.00
2012-9-30,69.3,58.6,50.4,44.6,31.5,23.2,73,39,20,29.91,29.79,12,2,12,0.00
2012-10-1,72.3,58.7,47.3,43.8,29.6,19.6,78,38,16,30.00,29.82,13,2,13,0.29
2012-10-2,66.7,63.9,61.0,58.6,46.6,32.3,79,56,33,30.00,29.91,8,2,8,0.29
2012-10-3,80.8,69.4,64.0,67.2,54.9,43.3,79,63,28,30.12,29.94,8,1,8,0.05
2012-10-4,76.8,68.9,60.4,62.5,54.2,44.9,79,61,33,30.15,29.97,8,0,8,0.03
2012-10-5,80.1,66.0,55.2,53.9,40.0,27.4,80,46,17,30.12,29.94,10,1,10,0.00
2012-10-6,75.7,64.0,48.9,49.7,32.7,18.8,64,33,22,30.03,29.79,16,2,16,0.17
2012-10-7,51.8,47.9,42.1,37.0,27.0,21.0,65,45,30,30.15,30.00,5,1,5,0.13
2012-10-8,53.4,47.0,39.2,37.8,26.9,18.9,78,49,27,30.30,30.12,8,2,8,0.30
2012-10-9,57.0,52.7,48.4,49.2,35.3,23.3,78,53,37,30.27,30.06,8,3,8,0.08
2012-10-10,67.3,59.1,52.2,51.6,35.8,17.2,79,48,18,30.06,29.85,19,3,22,0.00
2012-10-11,61.3,50.9,43.3,18.3,14.5,9.7,33,24,16,30.24,30.03,14,2,14,0.00
2012-10-12,58.8,47.6,36.5,33.0,15.7,4.5,69,30,17,30.41,30.09,17,3,17,0.00
2012-10-13,58.5,44.2,28.6,19.7,11.2,0.5,55,28,17,30.53,30.30,10,2,10,0.00
2012-10-14,73.2,60.7,43.5,33.6,25.8,17.5,42,28,16,30.33,29.94,15,3,15,0.00
2012-10-15,67.8,63.2,57.0,54.5,42.2,32.7,75,49,30,30.44,29.65,13,2,13,0.66
2012-10-16,60.1,52.5,41.2,38.4,22.4,13.3,61,33,19,29.94,29.71,20,3,20,0.05
2012-10-17,65.1,49.2,36.5,37.7,23.2,14.4,73,41,18,30.06,29.91,6,1,6,0.00
2012-10-18,70.2,57.0,43.0,44.2,31.6,24.4,75,42,19,30.06,29.68,15,3,15,0.00
2012-10-19,72.3,66.1,61.7,61.6,49.4,38.8,78,56,34,29.97,29.62,13,3,13,0.74
2012-10-20,64.9,56.7,44.6,49.0,30.5,16.4,79,41,18,29.88,29.65,14,2,14,0.00
2012-10-21,65.1,53.7,44.4,27.6,20.8,13.5,51,29,18,30.06,29.88,18,3,18,0.00
2012-10-22,68.4,55.2,44.1,23.7,20.0,14.4,43,26,17,30.18,30.06,14,2,14,0.00
2012-10-23,70.2,56.0,44.2,36.3,28.9,23.1,64,37,22,30.18,30.06,5,0,5,0.00
2012-10-24,72.5,60.4,52.0,45.2,36.2,29.9,69,43,22,30.18,30.06,10,2,10,0.00
2012-10-25,61.5,59.1,57.0,50.0,44.8,39.1,74,60,44,30.27,30.18,8,2,8,0.00
2012-10-26,66.0,61.7,58.6,46.2,38.5,33.4,62,43,30,30.21,30.09,7,2,7,0.00
2012-10-27,65.7,61.0,57.2,40.3,32.1,25.7,47,34,25,30.09,29.88,10,2,10,0.00
2012-10-28,58.3,56.2,53.6,37.8,28.8,21.1,55,36,26,29.91,29.62,12,3,12,0.13
2012-10-29,57.6,54.0,51.4,49.3,36.0,23.7,74,53,30,29.62,28.47,16,4,17,2.57
2012-10-30,50.7,46.8,41.9,36.1,26.3,20.0,57,45,33,29.53,28.64,22,4,22,0.17
2012-10-31,48.7,44.4,40.3,28.8,21.8,16.4,59,42,30,29.65,29.47,10,1,10,0.00
2012-11-1,50.2,45.2,38.1,21.3,18.2,16.6,49,34,27,29.71,29.59,13,3,13,0.00
2012-11-2,50.4,45.9,41.9,17.7,15.3,11.2,32,29,24,29.85,29.65,14,5,15,0.00
2012-11-3,48.4,44.1,41.5,12.4,10.5,7.3,29,25,22,30.03,29.65,16,5,16,0.00
2012-11-4,45.5,41.0,34.2,11.8,8.0,3.9,32,25,22,30.06,29.97,13,3,13,0.00
2012-11-5,44.6,39.4,34.0,8.8,5.5,-1.0,26,24,22,30.18,29.94,12,3,12,0.00
2012-11-6,43.9,35.3,24.6,5.5,1.9,-2.8,38,24,20,30.24,30.03,9,1,9,0.00
2012-11-7,39.7,35.9,33.6,25.6,11.6,0.5,71,40,22,30.03,29.82,15,3,15,0.25
2012-11-8,50.2,42.0,34.0,19.5,6.6,1.0,55,23,19,30.00,29.76,19,5,19,0.04
2012-11-9,54.5,42.5,34.0,11.7,6.5,-0.9,36,23,18,30.21,29.94,14,4,14,0.00
2012-11-10,57.2,44.3,31.6,20.3,15.4,10.7,52,33,19,30.39,30.21,5,1,5,0.29
2012-11-11,71.1,53.2,39.2,43.4,24.6,16.8,77,37,17,30.44,30.36,4,1,8,0.00
2012-11-12,70.0,56.8,41.0,46.0,31.4,16.6,77,41,22,30.44,30.15,13,3,13,0.00
2012-11-13,62.8,45.8,36.7,41.9,22.0,7.4,61,40,27,30.44,30.12,24,5,24,0.25
2012-11-14,47.5,38.3,29.5,10.6,6.7,3.2,43,27,19,30.53,30.41,14,3,15,0.00
2012-11-15,47.8,37.9,29.5,13.8,8.7,4.5,44,30,22,30.47,30.30,11,2,11,0.00
2012-11-16,48.4,38.2,29.5,13.4,9.0,2.6,44,31,19,30.41,30.27,9,1,9,0.00
2012-11-17,53.2,39.0,26.1,15.6,10.5,6.4,53,32,18,30.62,30.41,12,2,12,96.51
2012-11-18,50.4,41.1,32.2,17.6,14.3,11.0,53,34,21,30.65,30.50,13,3,13,0.00
2012-11-19,52.3,44.2,35.6,19.2,15.7,12.1,42,32,26,30.53,30.21,12,4,12,0.00
2012-11-20,51.1,44.2,35.1,21.1,13.5,8.1,52,30,21,30.21,30.06,8,2,8,0.00
2012-11-21,54.3,40.2,29.1,19.9,10.8,3.6,52,31,18,30.24,30.12,12,2,12,0.00
2012-11-22,56.7,40.4,26.6,22.5,14.1,8.0,55,36,20,30.27,30.15,8,1,8,0.00
2012-11-23,58.1,45.5,30.2,35.2,18.5,3.9,73,37,19,30.15,29.71,19,2,19,0.00
2012-11-24,50.9,39.5,35.6,12.4,3.1,0.5,23,21,20,29.94,29.71,26,8,26,0.00
2012-11-25,39.4,34.5,25.9,2.7,-0.0,-3.1,31,22,21,30.00,29.88,17,4,17,0.00
2012-11-26,48.4,34.9,24.3,9.5,4.8,-0.6,43,29,19,30.24,29.94,13,2,13,0.00
2012-11-27,37.9,34.7,31.1,27.0,19.6,5.4,74,56,29,30.27,30.18,9,2,9,0.62
2012-11-28,40.5,33.8,25.3,23.0,10.5,1.6,68,39,23,30.33,30.18,19,3,19,0.04
2012-11-29,44.2,32.9,24.1,10.5,5.9,0.8,53,33,20,30.39,30.30,18,2,18,0.00
2012-11-30,46.9,36.6,25.2,25.9,10.8,6.2,56,36,19,30.39,29.94,10,2,11,0.00
2012-12-1,46.6,40.9,37.6,33.7,20.3,15.5,77,44,34,30.47,30.36,12,5,12,0.00
2012-12-2,52.0,45.2,39.4,39.4,31.7,22.1,78,62,31,30.39,30.12,7,2,7,0.04
2012-12-3,64.6,53.2,41.2,43.1,31.7,23.0,79,48,23,30.24,30.12,10,1,10,0.00
2012-12-4,66.6,57.8,50.7,40.9,32.3,27.4,67,40,24,30.27,29.97,10,2,10,0.00
2012-12-5,58.3,50.1,34.3,30.8,15.8,-0.6,36,26,19,30.30,29.94,20,6,20,0.00
2012-12-6,42.3,33.5,27.7,5.1,-0.1,-4.8,31,24,21,30.39,30.24,11,2,11,0.04
2012-12-7,42.3,37.0,28.4,34.9,21.7,2.0,75,55,32,30.27,30.00,4,1,4,0.21
2012-12-8,52.0,47.1,41.7,42.3,37.4,31.7,79,70,46,30.03,29.88,8,1,8,0.17
2012-12-9,48.7,44.7,41.2,41.3,33.9,24.0,79,67,44,30.21,30.00,13,3,13,0.28
2012-12-10,59.7,53.8,42.8,53.2,46.6,36.1,80,77,66,30.00,29.59,9,2,10,0.05
2012-12-11,58.1,44.5,33.8,49.5,17.6,4.5,73,35,22,30.21,29.59,17,3,17,0.08
2012-12-12,43.7,36.4,30.4,23.2,9.5,2.5,62,34,20,30.41,30.21,9,1,9,0.08
2012-12-13,46.2,35.8,27.5,14.3,6.7,0.7,51,30,20,30.47,30.30,10,1,11,0.00
2012-12-14,50.4,35.6,23.2,16.4,7.1,-0.4,56,33,19,30.33,29.94,15,2,15,0.00
2012-12-15,48.7,38.0,27.7,15.6,10.8,4.4,49,33,21,30.30,30.15,9,1,9,0.00
2012-12-16,51.3,46.6,41.7,41.0,28.8,15.4,75,52,34,30.15,29.85,10,3,10,0.08
2012-12-17,45.7,43.9,41.7,40.5,37.6,35.4,82,78,74,29.91,29.59,11,4,11,0.05
2012-12-18,57.2,48.2,40.3,45.0,28.5,8.1,82,52,25,29.71,29.47,26,5,26,0.20
2012-12-19,48.9,41.7,35.4,12.1,8.4,2.8,30,25,21,30.15,29.71,20,6,20,0.00
2012-12-20,46.2,37.2,28.2,36.5,12.7,4.8,70,37,26,30.21,29.62,17,3,17,0.25
2012-12-21,57.2,43.3,35.2,48.7,19.7,3.9,75,42,24,29.62,29.14,29,8,29,1.83
2012-12-22,41.2,37.1,33.8,17.1,4.2,-0.1,50,25,21,29.91,29.44,30,10,30,0.00
2012-12-23,45.5,36.2,28.0,6.8,1.4,-3.0,33,23,20,30.03,29.65,17,4,17,0.00
2012-12-24,39.6,31.7,23.0,26.6,9.7,1.0,74,43,21,30.06,29.88,9,2,9,0.00
2012-12-25,39.4,35.7,32.7,28.8,16.7,4.7,80,49,29,30.24,29.85,13,4,13,0.20
2012-12-26,39.7,32.6,27.9,29.4,12.7,2.7,70,45,30,30.27,29.35,31,7,31,0.91
2012-12-27,40.3,36.1,32.9,26.4,12.9,3.4,65,40,27,29.91,29.29,28,9,28,0.20
2012-12-28,38.7,33.3,28.6,6.6,3.4,1.0,36,28,24,30.09,29.88,20,4,20,1.24
2012-12-29,32.9,30.9,28.6,22.8,11.8,2.6,67,46,32,30.06,29.50,11,3,11,0.00
2012-12-30,36.3,32.7,28.9,6.0,0.9,-4.2,34,25,22,30.21,29.65,32,8,32,0.00
2012-12-31,40.6,33.3,27.9,5.6,0.4,-4.2,28,24,21,30.24,29.91,15,4,15,0.00
2013-1-1,41.0,37.6,28.9,8.5,4.7,-4.3,29,25,23,30.03,29.82,15,4,15,0.08